Regional Weather Roundup
Issued by NWS

Home | Current Version | Previous Version | Graphics & Text | Print | Product List | Glossary On
Versions: 1 2 3 4 5 6 7 8 9 10 11 12 13 14 15 16 17 18 19 20 21 22 23 24 25 26 27 28 29 30 31 32 33 34 35 36 37 38 39 40 41 42 43 44 45 46 47 48 49 50
000
ASUS43 KFSD 241802
RWRSD

WEATHER ROUNDUP FOR SOUTH DAKOTA
NATIONAL WEATHER SERVICE SIOUX FALLS SD
100 PM CDT SAT JUN 24 2017

NOTE: "FAIR" INDICATES FEW OR NO CLOUDS BELOW 12,000 FEET WITH NO
SIGNIFICANT WEATHER AND/OR OBSTRUCTIONS TO VISIBILITY.


SDZ001>005-009-010-012>017-241900-
NORTHWEST AND NORTH CENTRAL SOUTH DAKOTA

CITY           SKY/WX    TMP DP  RH WIND       PRES   REMARKS
BUFFALO          N/A     66  35  31 NW18G36   30.21S
FAITH            N/A     67  37  33 NW18G29   30.24R
MOBRIDGE       SUNNY     68  36  30 NW24G32   30.16R
$$

SDZ012>016-024>037-041>051-057-063-072>074-241900-
SOUTHWEST AND SOUTH CENTRAL SOUTH DAKOTA

CITY           SKY/WX    TMP DP  RH WIND       PRES   REMARKS
RAPID CTY ARPT MOSUNNY   72  32  23 NW23G31   30.27S
PIERRE         MOSUNNY   69  39  33 NW22G30   30.19F
CUSTER         MOSUNNY   61  29  29 NW12G20   30.35S
ELLSWORTH AFB  PTSUNNY   71  32  23 N25G31    30.27S
PHILIP         MOSUNNY   74  34  23 NW23G32   30.22S
PINE RIDGE     CLOUDY    65  34  31 N9        30.30S
SPEARFISH      FAIR      66  36  32 NW10G21   30.31S
WINNER         FAIR      73  32  22 NW24G32   30.20S
$$

SDZ004>011-016>023-039-040-241900-
NORTHEAST SOUTH DAKOTA

CITY           SKY/WX    TMP DP  RH WIND       PRES   REMARKS
ABERDEEN       CLOUDY    63  41  44 NW20G29   30.14S
WATERTOWN      PTSUNNY   62  42  47 NW23G29   30.11R
BROOKINGS      MOSUNNY   63  42  46 NW23G30   30.11R
SISSETON         N/A     61  41  47 NW22G30   30.08R
$$

SDZ017-020-022-023-036>040-048>070-241900-
SOUTHEAST SOUTH DAKOTA

CITY           SKY/WX    TMP DP  RH WIND       PRES   REMARKS
SIOUX FALLS    MOSUNNY   71  44  37 NW23G35   30.10R
HURON          SUNNY     69  39  33 NW23G37   30.13S
CHAMBERLAIN    MOSUNNY   72  41  32 W22G29    30.19S
MITCHELL       SUNNY     74  39  28 NW26G33   30.14S
YANKTON        MOSUNNY   72  38  29 W23G33    30.14S
$$

ABBREVIATIONS USED IN REMARKS
   TC - TEMPERATURE IN CELSIUS
  WCI - WIND CHILL INDEX
   HX - HEAT INDEX
  VSB - VISIBILITY




USA.gov is the U.S. government's official web portal to all federal, state and local government web resources and services.